PBO Station Position Time Series. Reference Frame : NAM14
Format Version,1.1.0
4-character ID,PTEX
Station name,Testerazo_MX2011
Begin Date, 2011-04-28
End Date, 2019-08-18
Release Date, 2019-10-03
Reference position, 32.2884529764 North Latitude, -116.5212359687 East Longitude, 340.58784 meters elevation,
Date, North (mm), East (mm), Vertical (mm), North Std. Deviation (mm), East Std. Deviation (mm),              Vertical Std. Deviation (mm), Quality,
2011-04-28,0.00, 0.00, 0.00, 1.84, 1.57, 7.28, repro,
2011-04-29,0.79, -0.51, 4.97, 1.84, 1.57, 7.27, repro,
2011-04-30,-1.04, 0.71, 4.36, 1.83, 1.56, 7.26, repro,
2011-05-01,0.08, 0.41, 4.10, 1.84, 1.57, 7.28, repro,
2011-05-02,-0.26, 0.58, 8.43, 1.85, 1.56, 7.28, repro,
2011-05-03,-0.54, -0.71, 3.63, 1.86, 1.60, 7.34, repro,
2011-05-04,-1.15, -0.02, 3.46, 1.87, 1.61, 7.38, repro,
2011-05-05,0.84, 1.52, 4.14, 1.88, 1.60, 7.37, repro,
2011-05-06,-0.80, 0.86, 3.59, 1.87, 1.59, 7.34, repro,
2011-05-07,-2.21, -0.07, 10.39, 1.87, 1.61, 7.47, repro,
2011-05-08,-3.21, -1.29, 21.57, 1.85, 1.61, 7.39, repro,
2011-05-09,-1.95, -1.89, 12.11, 1.87, 1.62, 7.51, repro,
2011-05-10,0.01, 0.49, 8.56, 1.85, 1.62, 7.45, repro,
2011-05-11,-1.32, 0.30, 3.17, 1.83, 1.57, 7.25, repro,
2011-05-12,-0.43, 0.92, 0.41, 1.85, 1.57, 7.31, repro,
2011-05-13,-1.78, -0.98, 4.35, 1.88, 1.61, 7.49, repro,
2011-05-14,-2.28, -1.51, 4.00, 1.86, 1.61, 7.36, repro,
2011-05-15,-2.00, -1.00, 12.30, 1.87, 1.62, 7.46, repro,
2011-05-16,0.19, -0.43, 5.00, 1.86, 1.61, 7.40, repro,
2011-05-17,-2.22, -0.84, 6.83, 1.85, 1.61, 7.39, repro,
2011-05-18,-1.50, -0.93, 0.28, 1.87, 1.62, 7.45, repro,
2011-05-19,-2.13, -1.24, 8.99, 1.88, 1.66, 7.57, repro,
2011-05-20,-2.76, -0.65, 2.42, 1.87, 1.62, 7.41, repro,
2011-05-21,-1.57, 0.90, 5.15, 1.89, 1.66, 7.65, repro,
2011-05-22,-1.09, 0.68, -0.77, 1.86, 1.61, 7.39, repro,
2011-05-23,-1.74, -0.90, 7.95, 1.87, 1.62, 7.43, repro,
2011-05-24,-1.94, -1.05, -1.22, 1.89, 1.67, 7.61, repro,
2011-05-25,-2.29, -0.48, -1.37, 1.87, 1.65, 7.55, repro,
2011-05-26,-2.92, -0.61, -4.44, 1.90, 1.67, 7.69, repro,
2011-05-27,-2.50, 0.15, 4.85, 1.87, 1.61, 7.43, repro,
2011-05-28,-2.27, 0.60, 10.54, 1.86, 1.62, 7.43, repro,
2011-05-29,-3.69, 1.47, 3.42, 1.90, 1.67, 7.69, repro,
2011-05-30,-1.47, -0.73, 8.54, 1.88, 1.66, 7.62, repro,
2011-05-31,-2.05, -0.44, 4.39, 1.87, 1.61, 7.44, repro,
2011-06-01,-1.81, -0.30, -1.27, 1.89, 1.66, 7.64, repro,
2011-06-02,-0.73, 0.14, 5.30, 1.88, 1.65, 7.60, repro,
2011-06-03,-1.06, -0.57, 8.09, 1.87, 1.60, 7.44, repro,
2011-06-04,-0.31, -1.66, -1.60, 1.87, 1.61, 7.48, repro,
2011-06-05,-1.33, -0.45, -0.28, 1.86, 1.60, 7.37, repro,
2011-06-06,-2.75, -1.03, 6.79, 1.87, 1.60, 7.39, repro,
2011-06-07,0.17, -1.67, 15.00, 1.86, 1.60, 7.41, repro,
2011-06-08,-0.86, -0.41, 6.41, 1.86, 1.60, 7.39, repro,
2011-06-09,-0.92, -1.04, 6.25, 1.86, 1.60, 7.39, repro,
2011-06-10,-0.59, -0.91, 4.75, 1.85, 1.60, 7.36, repro,
2011-06-11,-0.22, -0.92, 13.02, 1.86, 1.61, 7.37, repro,
2011-06-12,-1.02, -0.54, 12.17, 1.88, 1.61, 7.43, repro,
2011-06-13,0.26, -0.82, 8.71, 1.86, 1.61, 7.41, repro,
2011-06-14,-1.18, -1.18, 7.25, 1.86, 1.61, 7.44, repro,
2011-06-15,-0.73, -0.75, 5.08, 1.87, 1.61, 7.46, repro,
2011-06-16,0.21, 0.03, 7.22, 1.86, 1.61, 7.45, repro,
2011-06-17,0.76, -0.88, 17.39, 1.87, 1.62, 7.42, repro,
2011-06-18,-0.39, 0.20, 8.02, 1.86, 1.61, 7.41, repro,
2011-06-19,-2.00, -1.23, 11.05, 1.86, 1.61, 7.41, repro,
2011-06-20,-1.23, -1.63, 8.29, 1.86, 1.62, 7.46, repro,
2011-06-21,-0.35, -0.77, 5.88, 1.87, 1.62, 7.43, repro,
2011-06-22,-1.10, -0.45, 10.00, 1.87, 1.62, 7.43, repro,
2011-06-23,0.47, -0.67, 8.44, 1.86, 1.61, 7.34, repro,
2011-06-24,-0.09, -1.01, 15.14, 1.86, 1.62, 7.41, repro,
2011-06-25,-0.51, -2.13, 10.76, 1.87, 1.62, 7.46, repro,
2011-06-26,-1.76, -1.25, 9.76, 1.87, 1.61, 7.42, repro,
2011-06-27,-0.29, -2.13, 4.88, 1.87, 1.61, 7.42, repro,
2011-06-28,0.21, -0.93, 11.36, 1.87, 1.61, 7.42, repro,
2011-06-29,-1.65, -1.85, 10.61, 1.87, 1.61, 7.43, repro,
2011-06-30,0.91, -1.51, 5.59, 1.87, 1.62, 7.46, repro,
2011-07-01,-0.27, -1.62, 10.62, 1.88, 1.62, 7.50, repro,
2011-07-02,0.42, -0.60, 5.26, 1.90, 1.66, 7.54, repro,
2011-07-03,0.40, -1.15, 10.97, 1.87, 1.61, 7.41, repro,
2011-07-04,0.43, -1.78, 3.20, 1.88, 1.62, 7.50, repro,
2011-07-05,-0.25, -0.93, 9.51, 1.93, 1.67, 7.71, repro,
2011-07-06,-0.19, -0.28, 7.24, 2.15, 1.91, 8.61, repro,
2011-07-07,-2.36, -0.96, 3.39, 1.91, 1.62, 7.64, repro,
2011-07-08,1.43, 0.06, 8.14, 1.92, 1.61, 7.60, repro,
2011-07-09,0.15, -1.34, 14.98, 1.91, 1.62, 7.61, repro,
2011-07-10,-1.01, -2.22, 9.21, 1.91, 1.62, 7.67, repro,
2011-07-11,1.08, -1.12, 4.47, 1.91, 1.62, 7.65, repro,
2011-07-12,-0.36, -0.91, 5.69, 1.91, 1.62, 7.62, repro,
2011-07-13,0.16, -1.13, 6.13, 1.91, 1.62, 7.65, repro,
2011-07-14,0.00, -0.98, 1.41, 1.89, 1.61, 7.55, repro,
2011-07-15,-0.33, -2.81, 11.89, 1.91, 1.62, 7.61, repro,
2011-07-16,-1.21, -2.69, 2.80, 1.91, 1.63, 7.65, repro,
2011-07-17,0.07, -1.80, 9.73, 1.90, 1.62, 7.59, repro,
2011-07-18,-1.09, -1.42, 4.13, 1.91, 1.62, 7.63, repro,
2011-07-19,-0.74, 0.51, 5.78, 1.90, 1.62, 7.63, repro,
2011-07-20,0.84, -1.99, 10.77, 1.92, 1.64, 7.60, repro,
2011-07-21,-2.19, -0.98, 13.12, 1.91, 1.62, 7.60, repro,
2011-07-22,-0.03, -0.69, 9.31, 1.90, 1.62, 7.57, repro,
2011-07-23,0.11, -1.05, 0.43, 1.90, 1.62, 7.59, repro,
2011-07-24,-0.28, -1.72, 11.06, 1.91, 1.62, 7.63, repro,
2011-07-25,-1.09, -1.14, 8.55, 1.90, 1.61, 7.55, repro,
2011-07-26,-0.06, -1.79, 11.58, 1.92, 1.62, 7.61, repro,
2011-07-27,-1.97, -1.58, 8.50, 1.91, 1.62, 7.61, repro,
2011-07-28,-0.61, -1.35, 8.83, 1.92, 1.65, 7.73, repro,
2011-07-29,-0.18, -2.29, 7.69, 1.91, 1.62, 7.65, repro,
2011-07-30,-1.68, -1.01, 12.12, 1.90, 1.61, 7.60, repro,
2011-07-31,-1.03, -1.37, 14.63, 1.91, 1.62, 7.61, repro,
2011-08-01,-0.09, -0.55, 8.00, 1.91, 1.63, 7.63, repro,
2011-08-02,-0.99, -2.58, 7.24, 1.92, 1.63, 7.66, repro,
2011-08-03,0.04, -1.78, 2.15, 1.95, 1.69, 7.87, repro,
2011-08-04,0.69, -1.71, 7.77, 1.89, 1.61, 7.55, repro,
2011-08-05,-0.68, -1.77, 9.02, 1.90, 1.61, 7.54, repro,
2011-08-06,-1.13, -1.39, 7.43, 1.94, 1.68, 7.88, repro,
2011-08-07,0.13, -0.89, 7.10, 1.92, 1.64, 7.73, repro,
2011-08-08,1.58, -1.38, 9.45, 1.91, 1.63, 7.65, repro,
2011-08-09,0.60, -1.46, 8.87, 1.89, 1.61, 7.58, repro,
2011-08-10,-0.63, -1.16, 6.34, 1.92, 1.64, 7.65, repro,
2011-08-11,-1.47, -0.25, 9.75, 1.99, 1.66, 7.95, repro,
2011-08-12,-0.98, -1.71, 10.10, 2.00, 1.67, 8.03, repro,
2011-08-13,-1.58, -0.97, 7.96, 1.94, 1.66, 7.74, repro,
2011-08-14,-1.61, -1.48, 0.15, 1.93, 1.64, 7.65, repro,
2011-08-15,-1.06, -1.88, 8.00, 1.92, 1.64, 7.63, repro,
2011-08-16,-2.27, -1.20, 11.00, 1.93, 1.65, 7.65, repro,
2011-08-17,-1.91, -0.93, 2.70, 1.92, 1.66, 7.71, repro,
2011-08-18,-2.36, -1.72, 3.79, 1.92, 1.63, 7.68, repro,
2011-08-19,-0.89, -0.98, 8.55, 1.94, 1.63, 7.70, repro,
2011-08-20,-0.21, -2.17, 4.74, 1.91, 1.62, 7.61, repro,
2011-08-21,-1.91, -2.02, 9.05, 1.93, 1.66, 7.75, repro,
2011-08-22,-2.19, -2.11, 9.91, 1.91, 1.63, 7.62, repro,
2011-08-23,1.05, -1.43, 0.75, 1.96, 1.69, 7.82, repro,
2011-08-24,0.12, -1.17, 14.45, 1.93, 1.63, 7.65, repro,
2011-08-25,1.62, 0.03, 10.38, 1.91, 1.62, 7.61, repro,
2011-08-26,-1.52, -1.43, 6.84, 1.96, 1.70, 7.80, repro,
2011-08-27,-1.00, -0.55, 9.35, 1.94, 1.67, 7.81, repro,
2011-08-28,1.01, -3.17, 12.07, 1.99, 1.70, 7.86, repro,
2011-08-29,-0.96, -2.43, 15.19, 1.94, 1.66, 7.76, repro,
2011-08-30,-3.58, -2.47, 15.74, 2.02, 1.68, 8.04, repro,
2011-08-31,-0.62, -1.94, 8.11, 1.99, 1.67, 7.99, repro,
2011-09-01,-0.71, -1.71, 11.82, 1.98, 1.66, 8.03, repro,
2011-09-02,-1.73, -0.83, 13.65, 1.98, 1.65, 7.98, repro,
2011-09-03,-1.75, -1.72, 15.05, 1.91, 1.62, 7.61, repro,
2011-09-04,-1.77, -1.57, 15.32, 1.92, 1.62, 7.58, repro,
2011-09-05,-0.50, -3.45, 15.16, 1.91, 1.62, 7.59, repro,
2011-09-06,0.14, -1.56, 8.37, 1.91, 1.63, 7.63, repro,
2011-09-07,-1.11, -2.74, 9.95, 1.94, 1.65, 7.69, repro,
2011-09-08,-0.68, -2.09, 6.74, 1.92, 1.65, 7.65, repro,
2011-09-09,-1.21, -1.74, 10.43, 1.93, 1.64, 7.64, repro,
2011-09-10,-1.75, -2.07, 18.79, 1.96, 1.66, 7.80, repro,
2011-09-11,-0.51, -1.60, 8.69, 1.93, 1.66, 7.69, repro,
2011-09-12,-1.10, -2.25, -0.16, 1.97, 1.70, 7.83, repro,
2011-09-13,0.81, -2.83, 12.76, 1.94, 1.66, 7.75, repro,
2011-09-14,-1.14, -2.70, 10.02, 1.91, 1.65, 7.62, repro,
2011-09-15,-1.09, -2.19, 10.23, 1.92, 1.64, 7.66, repro,
2011-09-16,0.69, -2.30, 9.11, 1.94, 1.67, 7.68, repro,
2011-09-17,0.84, -2.49, 14.75, 1.91, 1.64, 7.63, repro,
2011-09-18,1.33, -2.44, 6.58, 1.95, 1.69, 7.74, repro,
2011-09-19,-0.19, -1.44, 5.37, 1.97, 1.71, 7.84, repro,
2011-09-20,-0.91, -1.63, -0.92, 1.97, 1.70, 7.78, repro,
2011-09-21,-2.11, -2.62, 8.84, 1.92, 1.66, 7.69, repro,
2011-09-22,2.02, -2.07, 10.19, 1.93, 1.68, 7.69, repro,
2011-09-23,-1.90, -3.02, 9.67, 1.97, 1.70, 7.84, repro,
2011-09-24,-1.87, -2.34, 0.64, 1.93, 1.65, 7.74, repro,
2011-09-25,-0.85, -2.04, 7.77, 1.90, 1.62, 7.57, repro,
2011-09-26,-1.94, -1.86, 14.27, 1.96, 1.66, 7.75, repro,
2011-09-27,-1.21, -2.34, 17.10, 1.92, 1.62, 7.58, repro,
2011-09-28,1.15, -0.54, 9.06, 1.98, 1.72, 7.80, repro,
2011-09-29,-0.59, -2.38, 10.61, 1.99, 1.70, 7.79, repro,
2011-09-30,-0.80, -1.70, 2.31, 2.03, 1.73, 7.85, repro,
2011-10-01,-0.99, -1.31, 6.85, 1.99, 1.71, 7.80, repro,
2011-10-02,-1.84, -1.59, 10.11, 1.99, 1.70, 7.74, repro,
2011-10-03,-0.70, -2.96, 9.51, 1.97, 1.71, 7.72, repro,
2011-10-04,-2.56, -3.32, 6.79, 1.94, 1.66, 7.63, repro,
2011-10-05,0.09, -2.01, 3.19, 1.96, 1.64, 7.57, repro,
2011-10-06,0.47, -3.04, 10.38, 1.97, 1.65, 7.62, repro,
2011-10-07,-0.42, -3.87, 9.15, 1.94, 1.64, 7.53, repro,
2011-10-08,-0.36, -3.10, 10.58, 1.99, 1.70, 7.75, repro,
2011-10-09,-1.33, -3.81, 7.85, 1.97, 1.69, 7.76, repro,
2011-10-10,-0.28, -3.18, 4.04, 1.95, 1.65, 7.67, repro,
2011-10-11,-0.72, -2.43, 8.86, 1.99, 1.70, 7.77, repro,
2011-10-12,-0.34, -2.75, 13.22, 1.93, 1.63, 7.53, repro,
2011-10-13,-0.42, -3.11, 11.29, 1.98, 1.68, 7.71, repro,
2011-10-14,0.10, -2.31, 10.55, 1.94, 1.65, 7.65, repro,
2011-10-15,-0.40, -1.50, 5.69, 1.92, 1.62, 7.63, repro,
2011-10-16,-0.35, -1.80, 9.15, 1.95, 1.65, 7.65, repro,
2011-10-17,-0.96, -1.30, 6.74, 1.90, 1.59, 7.48, repro,
2011-10-18,-0.69, -2.02, 10.76, 1.91, 1.60, 7.50, repro,
2011-10-19,-1.41, -2.36, 8.49, 1.98, 1.69, 7.70, repro,
2011-10-20,-1.36, -3.80, 11.51, 1.91, 1.61, 7.57, repro,
2011-10-21,-1.45, -2.19, 7.17, 1.92, 1.61, 7.58, repro,
2011-10-22,-1.56, -2.69, 5.06, 1.91, 1.60, 7.49, repro,
2011-10-23,-0.59, -1.17, 7.41, 1.90, 1.60, 7.44, repro,
2011-10-24,0.80, -2.96, 7.15, 1.91, 1.60, 7.48, repro,
2011-10-25,-2.43, -3.36, 4.41, 1.90, 1.62, 7.50, repro,
2011-10-26,-0.98, -2.34, 9.56, 1.92, 1.61, 7.52, repro,
2011-10-27,0.10, -0.85, 5.51, 1.91, 1.61, 7.49, repro,
2011-10-28,-1.06, -1.55, 8.42, 1.94, 1.64, 7.55, repro,
2011-10-29,-0.61, -1.50, 5.97, 1.90, 1.60, 7.41, repro,
2011-10-30,-2.42, -3.34, 10.68, 1.90, 1.59, 7.37, repro,
2011-10-31,-0.41, -2.03, 12.92, 1.92, 1.62, 7.51, repro,
2011-11-01,0.32, -1.29, 6.38, 1.93, 1.66, 7.65, repro,
2011-11-02,0.48, -1.19, 4.97, 1.91, 1.62, 7.50, repro,
2011-11-03,-0.86, -1.22, 6.03, 1.95, 1.66, 7.66, repro,
2011-11-04,-5.70, -4.21, 9.20, 1.93, 1.66, 7.64, repro,
2011-11-05,-2.25, -2.59, 14.83, 1.94, 1.67, 7.70, repro,
2011-11-06,0.88, -1.25, 3.59, 1.94, 1.67, 7.70, repro,
2011-11-07,0.13, -2.31, 4.80, 1.92, 1.63, 7.52, repro,
2011-11-08,0.45, -0.50, -6.40, 1.92, 1.66, 7.60, repro,
2011-11-09,-0.17, -3.17, 2.65, 1.92, 1.63, 7.52, repro,
2011-11-10,-1.13, -2.61, 8.27, 1.97, 1.63, 7.63, repro,
2011-11-11,-0.59, -2.68, 8.78, 1.93, 1.62, 7.55, repro,
2011-11-12,-1.73, -3.16, 8.24, 1.93, 1.66, 7.66, repro,
2011-11-13,-0.46, -1.87, 17.94, 1.91, 1.62, 7.52, repro,
2011-11-14,-0.66, -2.73, 7.90, 1.90, 1.64, 7.56, repro,
2011-11-15,-0.30, -2.81, 9.36, 1.94, 1.65, 7.65, repro,
2011-11-16,-0.32, -2.81, 1.40, 1.91, 1.60, 7.47, repro,
2011-11-17,-0.55, -1.82, -2.11, 1.91, 1.60, 7.48, repro,
2011-11-18,-0.81, -2.85, 7.25, 1.92, 1.65, 7.58, repro,
2011-11-19,0.09, -1.49, 9.48, 1.93, 1.69, 7.72, repro,
2011-11-20,-2.94, -3.11, 2.81, 1.90, 1.60, 7.46, repro,
2011-11-21,-0.07, -3.73, -0.58, 1.97, 1.65, 7.67, repro,
2011-11-22,-1.23, -2.57, -0.64, 1.91, 1.60, 7.46, repro,
2011-11-23,-1.28, -3.39, -3.58, 1.98, 1.63, 7.69, repro,
2011-11-24,-1.68, -2.58, 1.11, 1.89, 1.60, 7.38, repro,
2011-11-25,-1.72, -2.69, 3.06, 1.93, 1.65, 7.56, repro,
2011-11-26,-1.64, -2.60, -3.48, 1.91, 1.60, 7.45, repro,
2011-11-27,-1.30, -1.46, -3.06, 1.94, 1.66, 7.71, repro,
2011-11-28,-1.07, -2.20, 0.98, 1.93, 1.66, 7.63, repro,
2011-11-29,-2.21, -2.09, 3.50, 1.90, 1.61, 7.44, repro,
2011-11-30,-2.14, -3.42, 6.49, 2.00, 1.65, 7.82, repro,
2011-12-01,-1.15, -2.84, 0.29, 1.91, 1.62, 7.49, repro,
2011-12-02,-1.95, -3.51, 1.14, 1.96, 1.65, 7.56, repro,
2011-12-03,-3.19, -3.03, -3.16, 1.97, 1.72, 7.72, repro,
2011-12-04,-2.35, -3.69, 0.29, 1.92, 1.64, 7.56, repro,
2011-12-05,0.65, -2.52, -6.38, 1.92, 1.65, 7.58, repro,
2011-12-06,-0.46, -4.25, -0.43, 1.92, 1.65, 7.54, repro,
2011-12-07,-1.44, -3.54, -0.18, 1.93, 1.65, 7.59, repro,
2011-12-08,-1.71, -2.60, 3.18, 1.93, 1.66, 7.65, repro,
2011-12-09,-2.04, -2.77, 3.10, 1.93, 1.65, 7.63, repro,
2011-12-10,-2.60, -2.43, 4.73, 1.92, 1.65, 7.60, repro,
2011-12-11,-1.00, -2.88, 4.34, 1.92, 1.65, 7.61, repro,
2011-12-12,-3.50, -4.66, 7.89, 1.92, 1.64, 7.60, repro,
2011-12-13,-4.24, -4.22, 0.80, 1.93, 1.65, 7.60, repro,
2011-12-14,-2.49, -2.28, 0.22, 1.89, 1.61, 7.46, repro,
2011-12-15,-2.69, -2.48, 4.17, 1.96, 1.68, 7.68, repro,
2011-12-16,-2.17, -2.48, -1.36, 1.94, 1.63, 7.57, repro,
2011-12-17,-0.83, -0.54, 4.22, 1.86, 1.58, 7.37, repro,
2011-12-18,-2.07, -1.92, 3.61, 1.87, 1.58, 7.38, repro,
2011-12-19,-1.06, -3.28, 0.89, 1.90, 1.61, 7.49, repro,
2011-12-20,-2.79, -2.21, 3.92, 1.96, 1.74, 7.92, repro,
2011-12-21,-3.25, -2.20, 0.79, 1.88, 1.60, 7.47, repro,
2011-12-22,-1.54, -2.30, -2.16, 1.87, 1.60, 7.41, repro,
2011-12-23,-0.71, -1.10, -2.18, 1.90, 1.63, 7.49, repro,
2011-12-24,0.26, -1.89, -2.82, 2.04, 1.75, 8.16, repro,
2011-12-25,-0.70, -1.87, -1.63, 1.91, 1.64, 7.57, repro,
2011-12-26,-2.25, -2.42, 4.45, 1.91, 1.64, 7.55, repro,
2011-12-27,-1.54, -2.14, 0.08, 1.90, 1.64, 7.54, repro,
2011-12-28,-1.26, -3.57, 4.75, 1.89, 1.63, 7.47, repro,
2011-12-29,-0.31, -4.00, 6.11, 1.89, 1.62, 7.45, repro,
2011-12-30,-1.11, -4.03, 7.15, 1.90, 1.64, 7.56, repro,
2011-12-31,-1.56, -2.68, 7.08, 1.87, 1.59, 7.39, repro,
2012-01-01,-1.38, -1.92, 0.73, 1.87, 1.58, 7.36, repro,
2012-01-02,-1.16, -3.46, 0.41, 1.89, 1.62, 7.44, repro,
2012-01-03,-0.43, -3.35, 5.66, 1.88, 1.61, 7.42, repro,
2012-01-04,-0.85, -4.02, 5.17, 1.89, 1.63, 7.48, repro,
2012-01-05,-1.79, -3.86, 8.08, 1.91, 1.63, 7.57, repro,
2012-01-06,-2.48, -3.01, 9.16, 1.88, 1.59, 7.44, repro,
2012-01-07,-1.98, -3.01, 5.52, 1.89, 1.62, 7.45, repro,
2012-01-08,-0.81, -4.33, 5.99, 1.86, 1.57, 7.35, repro,
2012-01-09,-0.52, -3.41, 0.98, 1.89, 1.63, 7.49, repro,
2012-01-10,-1.41, -3.68, 7.55, 1.92, 1.67, 7.73, repro,
2012-01-11,-1.93, -2.96, 10.08, 1.89, 1.62, 7.59, repro,
2012-01-12,-2.18, -2.86, 12.21, 1.87, 1.59, 7.45, repro,
2012-01-13,-1.22, -4.62, 7.77, 1.90, 1.65, 7.63, repro,
2012-01-14,-1.65, -4.17, 3.09, 1.89, 1.61, 7.53, repro,
2012-01-15,-3.82, -5.49, 11.86, 1.87, 1.59, 7.42, repro,
2012-01-16,-1.18, -3.15, 8.07, 1.87, 1.59, 7.40, repro,
2012-01-17,-1.43, -3.41, 4.23, 1.87, 1.59, 7.41, repro,
2012-01-18,-1.98, -3.08, 2.68, 1.89, 1.62, 7.52, repro,
2012-01-19,-1.84, -4.68, 7.93, 1.91, 1.65, 7.63, repro,
2012-01-20,-3.42, -5.75, 7.90, 1.87, 1.58, 7.38, repro,
2012-01-21,-1.64, -5.07, 13.46, 1.88, 1.60, 7.46, repro,
2012-01-22,-0.91, -3.08, 6.89, 1.88, 1.62, 7.57, repro,
2012-01-23,-1.59, -5.04, 3.19, 1.89, 1.62, 7.59, repro,
2012-01-24,-0.28, -2.99, 0.82, 1.88, 1.59, 7.45, repro,
2012-01-25,0.65, -2.85, 4.40, 1.92, 1.66, 7.62, repro,
2012-01-26,-1.59, -4.84, 0.64, 1.96, 1.77, 8.09, repro,
2012-01-27,-0.60, -1.74, 10.22, 1.88, 1.62, 7.56, repro,
2012-01-28,-1.26, -3.08, 9.57, 1.88, 1.62, 7.57, repro,
2012-01-29,-1.51, -3.17, 3.78, 1.88, 1.62, 7.58, repro,
2012-01-30,-2.76, -3.90, 7.50, 1.89, 1.61, 7.57, repro,
2012-01-31,-2.66, -3.96, 8.70, 1.87, 1.59, 7.37, repro,
2012-02-01,-2.25, -4.14, 9.35, 1.88, 1.60, 7.44, repro,
2012-02-02,-2.91, -3.51, 11.72, 1.90, 1.67, 7.73, repro,
2012-02-03,-1.52, -3.73, 7.13, 1.89, 1.62, 7.53, repro,
2012-02-04,-2.24, -3.98, 4.65, 1.90, 1.66, 7.71, repro,
2012-02-05,-3.23, -3.19, 6.87, 1.94, 1.73, 7.93, repro,
2012-02-06,-1.20, -3.81, 11.70, 1.90, 1.66, 7.69, repro,
2012-02-07,-2.97, -3.97, 10.02, 2.00, 1.67, 7.97, repro,
2012-02-08,-1.74, -4.18, 5.01, 1.88, 1.61, 7.48, repro,
2012-02-09,-2.56, -3.45, 4.09, 1.92, 1.66, 7.64, repro,
2012-02-10,-2.50, -2.73, 5.82, 1.89, 1.63, 7.49, repro,
2012-02-11,-2.35, -3.75, 11.31, 1.91, 1.63, 7.56, repro,
2012-02-12,-2.12, -4.32, 10.01, 1.90, 1.62, 7.49, repro,
2012-02-13,-3.20, -3.74, 8.81, 1.90, 1.62, 7.51, repro,
2012-02-14,-1.38, -3.91, 7.66, 1.90, 1.62, 7.50, repro,
2012-02-15,-2.74, -3.34, 6.51, 1.89, 1.61, 7.46, repro,
2012-02-16,-0.03, -4.02, 7.16, 1.91, 1.63, 7.56, repro,
2012-02-17,-0.97, -3.42, 5.05, 1.90, 1.62, 7.49, repro,
2012-02-18,-1.79, -3.01, 5.09, 1.90, 1.62, 7.48, repro,
2012-02-19,-2.04, -2.65, 12.64, 1.89, 1.62, 7.46, repro,
2012-02-20,-1.02, -3.45, 5.15, 1.88, 1.62, 7.45, repro,
2012-02-21,-2.43, -3.62, 10.54, 1.94, 1.67, 7.68, repro,
2012-02-22,-0.68, -4.87, 7.85, 1.93, 1.65, 7.61, repro,
2012-02-23,-3.59, -3.65, 11.66, 1.97, 1.71, 7.73, repro,
2012-02-24,-0.78, -2.05, 8.85, 1.87, 1.57, 7.33, repro,
2012-02-25,-0.81, -3.68, 9.03, 1.91, 1.62, 7.58, repro,
2012-02-26,-2.06, -2.66, 8.36, 1.95, 1.66, 7.69, repro,
2012-02-27,-2.52, -4.93, 10.93, 1.96, 1.64, 7.67, repro,
2012-02-28,-1.52, -5.17, 4.03, 1.93, 1.60, 7.51, repro,
2012-02-29,-2.37, -3.67, 8.68, 1.89, 1.59, 7.44, repro,
2012-03-01,-2.03, -2.78, 3.57, 1.94, 1.60, 7.53, repro,
2012-03-02,0.14, -3.71, 4.98, 1.97, 1.65, 7.64, repro,
2012-03-03,-0.51, -2.94, 3.69, 1.92, 1.64, 7.57, repro,
2012-03-04,-1.65, -4.92, 8.50, 1.93, 1.63, 7.54, repro,
2012-03-05,-2.52, -4.20, 9.04, 2.09, 1.68, 8.04, repro,
2012-03-06,-1.83, -4.19, 16.15, 2.04, 1.76, 7.96, repro,
2012-03-07,-1.53, -4.20, 10.17, 1.97, 1.63, 7.67, repro,
2012-03-08,-0.74, -2.47, 10.82, 1.95, 1.63, 7.66, repro,
2012-03-09,-0.60, -3.73, 2.24, 1.99, 1.67, 7.77, repro,
2012-03-10,-2.36, -4.64, 8.07, 2.05, 1.64, 7.92, repro,
2012-03-11,-2.43, -4.58, 8.70, 1.99, 1.67, 7.86, repro,
2012-03-12,-2.24, -2.02, 6.57, 2.00, 1.68, 7.89, repro,
2012-03-13,-1.78, -4.15, 8.88, 1.94, 1.61, 7.60, repro,
2012-03-14,-1.40, -4.53, 4.89, 1.95, 1.64, 7.65, repro,
2012-03-15,-2.06, -3.83, -1.10, 2.00, 1.63, 7.79, repro,
2012-03-16,-1.94, -4.72, 2.19, 1.92, 1.62, 7.61, repro,
2012-03-17,-2.96, -5.22, 4.16, 1.95, 1.62, 7.69, repro,
2012-03-18,-1.38, -4.24, 8.61, 2.06, 1.65, 7.97, repro,
2012-03-19,-1.32, -3.40, 5.26, 1.93, 1.61, 7.58, repro,
2012-03-20,-1.46, -4.05, 3.17, 1.94, 1.61, 7.59, repro,
2012-03-21,-1.82, -4.34, -1.15, 1.91, 1.62, 7.60, repro,
2012-03-22,-1.96, -4.48, -2.91, 1.94, 1.60, 7.61, repro,
2012-03-23,-1.41, -2.66, -0.83, 2.00, 1.65, 7.75, repro,
2012-03-24,0.40, -4.47, 2.08, 1.95, 1.63, 7.68, repro,
2012-03-25,-1.26, -5.60, 1.76, 1.89, 1.58, 7.46, repro,
2012-03-26,-1.93, -4.63, 0.72, 1.97, 1.62, 7.70, repro,
2012-03-27,-1.22, -5.54, 3.38, 1.95, 1.60, 7.58, repro,
2012-03-28,-2.00, -4.20, 2.96, 1.94, 1.61, 7.61, repro,
2012-03-29,-1.11, -4.50, 2.66, 1.95, 1.62, 7.64, repro,
2012-03-30,-1.20, -4.06, 0.42, 1.93, 1.61, 7.60, repro,
2012-03-31,-0.48, -3.79, 6.81, 1.87, 1.57, 7.42, repro,
2012-04-01,-1.56, -6.37, 8.97, 1.89, 1.58, 7.47, repro,
2012-04-02,-3.13, -4.35, 11.97, 1.87, 1.59, 7.47, repro,
2012-04-03,-3.03, -3.26, -2.28, 1.89, 1.59, 7.53, repro,
2012-04-04,-1.78, -2.52, 6.22, 1.88, 1.59, 7.51, repro,
2012-04-05,-1.90, -3.73, 4.90, 1.88, 1.59, 7.54, repro,
2012-04-06,-1.14, -3.16, 5.09, 1.90, 1.60, 7.54, repro,
2012-04-07,-3.19, -3.40, 7.98, 1.87, 1.58, 7.48, repro,
2012-04-08,-2.78, -2.84, -1.18, 1.86, 1.59, 7.47, repro,
2012-04-09,-3.57, -3.26, 3.01, 1.94, 1.68, 7.87, repro,
2012-04-10,-4.14, -4.29, 3.09, 1.86, 1.57, 7.44, repro,
2012-04-11,-1.59, -3.39, 3.40, 1.89, 1.58, 7.51, repro,
2012-04-12,-3.08, -3.09, 6.83, 1.87, 1.62, 7.51, repro,
2012-04-13,-3.21, -5.05, 9.75, 1.87, 1.58, 7.48, repro,
2012-04-14,-4.31, -3.32, 5.06, 1.90, 1.59, 7.56, repro,
2012-04-15,-2.08, -2.94, 0.89, 1.87, 1.57, 7.44, repro,
2012-04-16,-3.79, -3.22, 8.71, 1.87, 1.57, 7.46, repro,
2012-04-17,-2.44, -1.84, 2.23, 1.87, 1.58, 7.45, repro,
2012-04-18,-2.45, -2.95, 8.27, 1.86, 1.58, 7.42, repro,
2012-04-19,-3.07, -3.17, 4.94, 1.86, 1.58, 7.43, repro,
2012-04-20,-1.58, -1.50, 0.24, 1.89, 1.58, 7.52, repro,
2012-04-21,-2.34, -2.49, 4.17, 1.87, 1.57, 7.41, repro,
2012-04-22,-2.68, -2.52, 5.32, 1.87, 1.58, 7.43, repro,
2012-04-23,-2.66, -3.73, 11.91, 1.86, 1.58, 7.45, repro,
2012-04-24,-2.18, -4.42, 3.22, 1.90, 1.64, 7.58, repro,
2012-04-25,-2.32, -4.10, 13.35, 1.91, 1.64, 7.60, repro,
2012-04-26,-2.84, -4.41, 5.05, 1.90, 1.59, 7.58, repro,
2012-04-27,-3.19, -3.34, 7.06, 1.93, 1.58, 7.67, repro,
2012-04-28,-2.50, -3.49, 7.15, 1.87, 1.57, 7.41, repro,
2012-04-29,-1.01, -3.41, 6.03, 1.86, 1.58, 7.43, repro,
2012-04-30,-1.55, -3.67, 3.23, 1.87, 1.60, 7.53, repro,
2012-05-01,-4.25, -4.22, 11.45, 1.91, 1.64, 7.71, repro,
2012-05-02,-3.49, -3.63, 15.30, 1.90, 1.63, 7.66, repro,
2012-05-03,-3.06, -2.99, 9.02, 1.86, 1.58, 7.44, repro,
2012-05-04,-2.53, -3.41, 3.09, 1.88, 1.63, 7.64, repro,
2012-05-05,-1.51, -2.59, 2.10, 1.89, 1.64, 7.68, repro,
2012-05-06,-1.77, -3.73, 1.46, 1.90, 1.63, 7.68, repro,
2012-05-07,-3.66, -3.75, 5.93, 1.98, 1.76, 8.01, repro,
2012-05-08,-3.17, -2.95, 4.15, 1.86, 1.58, 7.44, repro,
2012-05-09,-3.24, -3.12, 4.36, 1.86, 1.58, 7.44, repro,
2012-05-10,-1.81, -4.03, 11.78, 1.86, 1.58, 7.46, repro,
2012-05-11,-2.58, -4.31, 9.06, 1.88, 1.60, 7.57, repro,
2012-05-12,-2.19, -3.79, 6.47, 1.90, 1.59, 7.58, repro,
2012-05-13,-1.15, -1.81, -2.18, 1.90, 1.63, 7.70, repro,
2012-05-14,-1.61, -2.80, -1.28, 1.88, 1.62, 7.59, repro,
2012-05-15,-2.25, -3.66, 3.91, 1.88, 1.61, 7.62, repro,
2012-05-16,-1.74, -3.07, 5.19, 1.89, 1.62, 7.63, repro,
2012-05-17,-2.06, -3.08, 7.77, 1.89, 1.59, 7.58, repro,
2012-05-18,-1.64, -2.80, 12.71, 1.91, 1.62, 7.66, repro,
2012-05-19,-1.52, -3.58, 8.91, 1.91, 1.63, 7.67, repro,
2012-05-20,-1.44, -2.02, 10.19, 1.89, 1.62, 7.58, repro,
2012-05-21,-0.21, -5.11, 14.09, 1.89, 1.61, 7.55, repro,
2012-05-22,-2.38, -3.43, 12.14, 1.89, 1.61, 7.59, repro,
2012-05-23,-1.64, -4.01, 21.83, 1.90, 1.63, 7.66, repro,
2012-05-24,-2.80, -3.80, 19.74, 1.91, 1.63, 7.68, repro,
2012-05-25,-2.17, -5.21, 7.90, 1.90, 1.63, 7.64, repro,
2012-05-26,-1.83, -3.36, 8.55, 1.89, 1.62, 7.57, repro,
2012-05-27,-1.22, -2.50, 7.77, 1.87, 1.58, 7.45, repro,
2012-05-28,-2.22, -2.73, 13.96, 1.88, 1.58, 7.48, repro,
2012-05-29,-1.20, -2.92, 16.21, 1.88, 1.58, 7.51, repro,
2012-05-30,-1.18, -3.20, 9.73, 1.87, 1.58, 7.49, repro,
2012-05-31,-0.85, -2.63, 7.54, 1.87, 1.58, 7.47, repro,
2012-06-01,-0.45, -2.38, 13.88, 1.90, 1.60, 7.54, repro,
2012-06-02,-1.32, -2.19, 14.21, 1.90, 1.59, 7.52, repro,
2012-06-03,-0.47, -3.62, 13.18, 1.88, 1.58, 7.50, repro,
2012-06-04,-3.28, -4.38, 10.66, 1.88, 1.58, 7.53, repro,
2012-06-05,-0.96, -3.50, 8.77, 1.88, 1.59, 7.52, repro,
2012-06-06,-0.82, -2.48, 10.75, 1.87, 1.58, 7.44, repro,
2012-06-07,-0.96, -3.74, 10.93, 1.86, 1.57, 7.42, repro,
2012-06-08,-0.70, -3.00, 15.61, 1.87, 1.58, 7.47, repro,
2012-06-09,-1.03, -4.07, 14.48, 1.88, 1.59, 7.53, repro,
2012-06-10,-0.28, -3.23, 11.55, 1.88, 1.58, 7.49, repro,
2012-06-11,-0.92, -4.28, 2.47, 1.87, 1.58, 7.45, repro,
2012-06-12,-2.45, -3.50, 8.26, 1.87, 1.58, 7.47, repro,
2012-06-13,-0.62, -3.57, 11.48, 1.88, 1.57, 7.47, repro,
2012-06-14,-1.03, -4.58, 13.32, 1.87, 1.57, 7.43, repro,
2012-06-15,-2.99, -5.10, 15.21, 1.88, 1.58, 7.51, repro,
2012-06-16,0.27, -3.18, 8.83, 1.88, 1.57, 7.47, repro,
2012-06-17,0.11, -3.31, 14.74, 1.87, 1.57, 7.45, repro,
2012-06-18,0.33, -2.59, 16.36, 1.88, 1.57, 7.49, repro,
2012-06-19,-1.57, -4.44, 9.14, 1.91, 1.62, 7.64, repro,